Location: Waco, TX
(31.5480°N, 97.1670°W)
Time: 04:06:50
(UTC-06:00)

ISS - Pass Details

Date: 20 January 2019
Orbit: 404 x 407 km, 51.6° (Epoch: 16 January)

Event Time Altitude Azimuth Distance (km) Brightness Sun altitude
Rises 03:37:22 0° 314° (NW) 2,327 - -48.7°
Reaches altitude 10° 03:39:28 10° 314° (NW) 1,464 - -48.3°
Maximum altitude 03:42:44 84° 227° (SW) 411 - -47.6°
Drops below altitude 10° 03:46:00 10° 138° (SE) 1,455 - -46.9°
Sets 03:48:05 0° 138° (SE) 2,311 - -46.4°
